TimeCDT,TemperatureF,Dew PointF,Humidity,Sea Level PressureIn,VisibilityMPH,Wind Direction,Wind SpeedMPH,Gust SpeedMPH,PrecipitationIn,Events,Conditions,WindDirDegrees,DateUTC
12:51 AM,61.0,55.0,81,30.04,10.0,NE,13.8,-,N/A,,Clear,50,2012-10-06 05:51:00
1:49 AM,59.0,53.6,82,30.08,10.0,NE,13.8,-,N/A,,Mostly Cloudy,40,2012-10-06 06:49:00
1:51 AM,59.0,54.0,83,30.04,10.0,NE,16.1,-,N/A,,Mostly Cloudy,40,2012-10-06 06:51:00
2:29 AM,57.2,53.6,88,30.08,10.0,NE,18.4,-,N/A,,Overcast,50,2012-10-06 07:29:00
2:51 AM,57.9,53.1,84,30.05,10.0,NE,17.3,-,N/A,,Overcast,50,2012-10-06 07:51:00
3:51 AM,57.0,52.0,83,30.04,10.0,NE,13.8,-,N/A,,Overcast,40,2012-10-06 08:51:00
4:29 AM,55.4,53.6,94,30.07,9.0,NE,13.8,-,N/A,,Overcast,50,2012-10-06 09:29:00
4:51 AM,55.9,53.1,90,30.04,5.0,NE,13.8,-,N/A,,Overcast,40,2012-10-06 09:51:00
5:39 AM,55.4,53.6,94,30.09,2.5,NE,15.0,-,N/A,,Overcast,40,2012-10-06 10:39:00
5:51 AM,54.0,53.1,97,30.06,2.5,NE,13.8,-,N/A,,Overcast,50,2012-10-06 10:51:00
6:25 AM,53.6,53.6,100,30.10,3.0,NE,11.5,-,N/A,,Overcast,50,2012-10-06 11:25:00
6:30 AM,53.6,53.6,100,30.09,3.0,NE,12.7,-,N/A,,Overcast,50,2012-10-06 11:30:00
6:51 AM,54.0,53.1,97,30.07,2.5,NE,11.5,-,N/A,,Overcast,50,2012-10-06 11:51:00
7:00 AM,53.6,51.8,94,30.10,3.0,NE,13.8,-,N/A,,Overcast,40,2012-10-06 12:00:00
7:51 AM,53.1,52.0,96,30.09,3.0,NE,11.5,20.7,N/A,,Overcast,40,2012-10-06 12:51:00
7:56 AM,53.6,51.8,94,30.12,2.5,NE,12.7,-,N/A,,Overcast,40,2012-10-06 12:56:00
8:44 AM,51.8,51.8,100,30.14,2.0,NE,12.7,-,0.00,,Overcast,50,2012-10-06 13:44:00
8:51 AM,52.0,51.1,97,30.12,1.8,NE,13.8,-,0.00,,Overcast,40,2012-10-06 13:51:00
9:23 AM,51.8,51.8,100,30.16,2.0,NNE,11.5,-,0.00,Rain,Light Rain,20,2012-10-06 14:23:00
9:31 AM,51.8,51.8,100,30.16,1.8,NNE,12.7,-,0.00,Rain,Light Rain,20,2012-10-06 14:31:00
9:39 AM,51.8,51.8,100,30.17,1.5,NNE,13.8,-,0.01,Rain,Light Rain,20,2012-10-06 14:39:00
9:51 AM,52.0,51.1,97,30.15,1.5,NNE,13.8,-,0.01,Rain,Light Rain,20,2012-10-06 14:51:00
10:38 AM,51.8,50.0,94,30.19,2.5,NNE,12.7,-,0.00,Rain,Light Rain,30,2012-10-06 15:38:00
10:46 AM,51.8,50.0,94,30.19,4.0,NNE,12.7,-,0.00,,Overcast,30,2012-10-06 15:46:00
10:51 AM,52.0,50.0,93,30.17,3.0,NNE,15.0,-,0.00,,Overcast,20,2012-10-06 15:51:00
11:20 AM,53.6,50.0,88,30.18,6.0,NNE,11.5,-,0.00,,Overcast,30,2012-10-06 16:20:00
11:34 AM,51.8,48.2,88,30.18,5.0,NNE,12.7,-,0.00,,Overcast,20,2012-10-06 16:34:00
11:51 AM,52.0,48.9,89,30.17,10.0,NNE,13.8,-,0.00,,Overcast,30,2012-10-06 16:51:00
12:34 PM,51.8,48.2,88,30.17,9.0,NNE,9.2,-,N/A,,Overcast,30,2012-10-06 17:34:00
12:51 PM,52.0,48.0,86,30.15,9.0,NNE,11.5,-,N/A,,Overcast,20,2012-10-06 17:51:00
1:03 PM,51.8,48.2,88,30.17,8.0,NNE,11.5,-,N/A,,Overcast,30,2012-10-06 18:03:00
1:11 PM,51.8,48.2,88,30.17,10.0,NNE,9.2,-,N/A,,Overcast,30,2012-10-06 18:11:00
1:51 PM,53.1,48.0,83,30.14,10.0,North,9.2,-,N/A,,Overcast,10,2012-10-06 18:51:00
3:51 PM,54.0,46.0,75,30.10,10.0,NNE,8.1,-,N/A,,Overcast,30,2012-10-06 20:51:00
6:02 PM,55.4,44.6,67,30.11,10.0,NE,11.5,-,N/A,,Overcast,40,2012-10-06 23:02:00
6:11 PM,55.4,44.6,67,30.11,10.0,NNE,13.8,-,N/A,,Overcast,30,2012-10-06 23:11:00
6:51 PM,55.0,45.0,69,30.11,10.0,NE,13.8,-,N/A,,Overcast,50,2012-10-06 23:51:00
7:10 PM,55.4,44.6,67,30.12,10.0,ENE,12.7,-,N/A,,Overcast,60,2012-10-07 00:10:00
7:51 PM,54.0,43.0,66,30.13,10.0,NE,11.5,-,N/A,,Overcast,50,2012-10-07 00:51:00
8:51 PM,53.1,41.0,64,30.17,10.0,NNE,15.0,-,N/A,,Overcast,30,2012-10-07 01:51:00
9:51 PM,51.1,39.9,66,30.20,10.0,NNE,16.1,-,N/A,,Overcast,30,2012-10-07 02:51:00
10:51 PM,48.9,39.9,71,30.22,10.0,NE,19.6,-,N/A,,Overcast,40,2012-10-07 03:51:00